Zurück zum Katalog

PRAETORIAN SDA_602

AktivMilitärPO
NORAD 65565·PAYLOAD·🇺🇸 United States

Gestartet Sep 10, 2025 von Vandenberg Space Force Base

Loading…

Nächste Überflüge (nächste 24 Stunden)

TLE

AktuellSource: Space-Track

Epoche: Sep 14, 2026, 12:40 UTC

1 65565U 25203A   26257.52824103  .00000054  00000-0  37822-4 0  9991
2 65565  81.3003 288.0730 0005200 322.5353  37.5440 13.83892898 51055

Verfolge PRAETORIAN SDA_602 in Echtzeit mit AllMySat

Download on the App Store